Wind_Speed
24 24 23 22 21 21 21 20 20 19 19 18 18 18 17 17 17 17 17 17 17 17 17 17 18 18 18 18 19 19 19 19 19 19 19 19 19 19 20 19 20 20 21 21
25 25 25 24 24 24 23 22 22 22 21 20 20 20 20 18 18 18 18 18 19 19 19 19 20 20 20 20 20 20 20 21 21 21 21 21 20 20 20 20 21 21 22 22
24 25 25 26 25 25 25 24 23 24 24 23 22 22 21 21 20 20 20 20 21 22 22 21 21 22 22 22 21 21 22 23 22 22 22 22 22 22 22 22 22 22 23 23
25 25 26 25 26 26 26 26 26 26 26 25 25 25 24 23 23 22 22 21 22 22 22 23 23 24 24 24 23 23 24 24 23 23 23 23 23 24 24 24 24 24 24 24
26 25 25 26 26 26 26 26 26 27 27 27 26 26 26 25 24 24 24 23 24 24 24 25 25 26 26 26 25 25 25 25 25 26 26 26 25 25 25 25 25 25 25 25
28 26 25 26 25 25 25 27 26 27 27 27 27 27 27 26 26 25 25 25 25 26 26 27 28 28 28 28 27 27 27 27 27 28 28 28 27 27 27 26 26 26 26 26
28 27 27 27 26 25 26 27 27 27 27 27 28 28 28 28 27 27 27 27 27 28 28 29 30 30 30 30 30 29 29 29 29 30 29 29 28 28 28 28 28 28 27 27
29 28 29 28 27 27 27 27 28 27 28 28 28 28 29 29 28 28 28 28 28 28 29 30 31 32 32 31 31 31 31 31 30 30 30 29 29 29 29 29 28 28 28 28
29 29 29 29 28 28 28 28 28 29 29 28 28 28 29 29 29 29 29 29 29 29 30 31 31 32 32 32 32 31 32 32 31 30 30 30 29 29 29 29 29 29 28 28
29 28 29 29 29 28 29 29 28 28 29 29 29 28 28 29 30 30 30 30 30 31 31 31 31 32 32 32 32 32 32 32 32 31 31 31 30 29 29 30 29 29 28 28
29 29 29 29 29 29 29 29 29 29 30 30 30 29 29 29 30 30 30 31 30 31 31 31 31 31 32 32 32 32 32 32 32 32 32 32 31 31 30 30 29 29 29 29
30 30 30 29 30 29 29 29 29 29 30 30 30 30 30 30 30 31 31 31 31 31 32 32 32 32 32 32 32 32 33 33 33 33 33 32 31 31 31 30 30 29 29 29
31 30 30 29 29 29 30 30 30 30 30 31 31 31 31 31 31 31 32 32 32 32 32 33 33 33 32 33 33 33 34 34 35 35 33 33 32 32 31 31 31 30 29 29
31 31 31 31 30 30 30 30 31 31 31 31 31 31 32 31 32 32 32 33 33 33 33 33 33 33 33 33 34 34 34 35 35 35 34 33 32 32 32 31 30 30 29 29
29 30 30 31 31 31 31 31 31 31 31 32 31 31 31 32 32 32 33 34 34 34 34 34 34 33 33 34 34 34 34 34 34 33 32 32 32 32 31 31 31 30 30 30
30 30 31 30 30 30 29 30 30 30 31 32 32 31 32 32 33 33 33 33 34 33 34 34 34 34 35 35 34 34 34 33 33 33 33 32 32 33 32 31 31 31 31 31
30 30 31 31 31 31 31 31 31 31 31 31 31 31 32 32 33 33 33 33 33 33 33 34 34 34 34 34 34 34 33 33 33 32 32 32 32 33 32 31 31 31 31 31
29 30 30 31 31 31 31 31 31 31 31 31 31 31 32 32 32 32 32 33 33 34 34 34 34 34 33 33 33 33 33 32 32 31 31 31 32 32 32 32 32 32 32 32
30 30 30 31 30 30 30 30 30 30 30 30 30 31 31 31 32 33 33 33 33 33 34 34 34 34 34 33 33 32 32 31 31 31 30 30 30 31 31 31 31 31 31 32
30 30 29 30 29 29 29 29 28 28 29 29 30 30 30 30 31 32 33 33 33 33 33 34 34 34 33 32 32 31 31 30 30 30 29 29 30 30 30 30 30 30 31 31
28 28 28 28 28 27 27 27 27 27 28 28 29 29 30 30 30 31 31 32 32 32 32 32 32 32 31 30 30 30 30 30 30 30 30 30 30 30 30 30 30 31 31 31
25 25 26 26 26 25 25 26 26 25 26 27 27 28 28 28 29 29 29 29 29 29 29 29 29 29 28 28 28 28 28 28 29 29 29 29 29 29 29 30 31 31 31 31
23 24 24 24 24 24 24 25 25 25 25 26 26 27 27 27 27 27 27 27 28 28 27 27 27 26 26 26 26 26 26 27 27 27 27 28 28 28 29 29 29 29 29 29
21 21 22 23 23 23 23 23 23 24 24 25 26 26 26 27 26 26 26 25 26 26 25 24 24 24 24 23 23 24 24 25 25 25 26 26 27 27 27 27 27 26 26 26
19 19 19 19 20 21 21 21 22 22 23 23 24 25 25 25 24 24 24 24 24 23 23 23 23 23 23 22 22 22 22 23 24 24 25 25 25 26 26 26 26 26 26 26
18 18 19 19 19 19 19 20 21 21 21 22 22 22 22 22 22 22 22 22 22 22 22 21 21 22 22 21 21 21 22 23 23 23 24 24 24 24 23 22 23 23 23 23
17 18 18 18 18 18 19 19 19 20 20 20 20 20 20 20 21 20 20 20 20 20 20 19 19 19 20 21 21 20 21 21 21 21 21 20 20 20 20 20 21 21 21 20
Wind_Direction
238 242 245 248 248 250 251 252 254 257 259 263 265 265 267 266 264 264 266 267 268 268 270 272 276 279 282 282 285 286 285 285 288 290 294 295 295 295 297 298 297 297 298 300
245 247 249 249 249 251 253 254 256 257 258 260 261 262 264 265 264 265 264 265 264 266 268 272 274 277 280 281 283 283 284 285 285 287 290 291 292 295 296 296 297 297 299 300
247 251 253 254 253 252 251 252 255 258 259 260 259 259 261 264 263 264 264 264 263 263 267 270 274 278 279 281 283 283 284 285 285 286 287 289 291 294 294 294 295 296 298 299
247 251 253 255 254 255 255 255 256 259 259 260 260 259 260 261 262 264 266 266 265 266 269 271 274 275 278 280 282 284 284 285 285 284 286 288 289 291 292 293 294 295 297 299
248 253 257 257 257 258 257 256 257 258 259 260 260 259 260 262 263 264 265 266 266 266 269 270 271 274 278 280 282 283 282 283 284 285 285 286 287 287 288 290 293 294 295 297
249 250 254 257 259 260 259 258 257 257 258 258 258 259 261 262 263 265 265 266 267 267 268 270 271 273 276 278 280 282 281 282 283 284 284 286 286 286 287 288 290 293 294 295
249 251 254 256 258 260 260 261 260 258 256 257 258 259 261 263 265 266 267 267 268 269 270 271 272 273 275 277 279 281 282 282 282 283 283 284 284 285 285 286 288 289 291 293
248 251 254 258 259 259 261 262 261 259 258 258 261 260 262 264 265 266 268 269 269 270 272 273 274 275 275 276 278 280 281 282 282 282 282 282 282 284 284 285 287 288 288 289
248 252 256 258 260 261 262 261 261 261 260 259 260 261 263 264 265 266 268 269 271 273 274 275 275 276 276 277 278 279 280 281 281 281 282 282 283 284 285 287 286 286 287 287
250 254 256 258 259 260 261 260 260 260 262 262 261 259 262 264 265 266 268 269 270 273 274 275 277 277 277 277 277 277 277 278 280 281 282 283 283 283 284 286 285 284 286 287
251 254 256 258 258 259 260 261 260 260 262 264 263 261 262 264 266 267 268 268 269 271 273 275 277 278 277 276 276 276 278 279 280 280 280 282 282 282 283 285 284 284 284 286
250 253 256 258 260 262 262 263 262 263 264 265 266 265 264 265 266 267 268 269 270 270 272 275 277 277 277 276 276 277 278 279 279 278 279 280 279 280 282 284 285 284 285 285
251 253 255 258 260 262 263 263 263 263 264 265 266 266 265 264 265 267 267 268 269 270 271 273 275 276 276 275 276 277 277 277 277 277 277 277 278 279 281 282 283 284 284 284
253 255 256 258 259 261 262 263 264 264 265 265 265 265 265 266 266 267 267 268 268 269 271 272 274 275 276 275 275 276 277 278 278 277 275 275 276 277 278 280 280 281 282 282
252 255 257 259 259 260 262 263 264 265 266 267 267 267 267 267 268 268 268 268 269 270 271 272 273 274 275 277 277 277 277 278 278 278 276 275 275 276 277 277 277 278 279 281
252 254 257 259 261 261 263 264 265 265 267 266 267 268 268 268 269 269 270 270 270 270 271 272 273 274 275 276 276 277 278 278 278 277 276 276 276 277 277 276 277 277 279 280
254 256 257 259 261 263 264 265 265 266 267 268 267 268 269 269 270 271 272 272 271 271 272 273 275 275 275 275 275 276 276 276 277 278 278 276 276 278 277 276 277 278 279 280
256 258 259 260 262 264 265 266 267 267 267 267 267 268 270 271 271 272 272 272 273 273 274 273 274 275 275 275 275 276 275 275 274 275 276 276 277 277 276 275 276 278 279 280
258 258 259 260 262 263 264 265 265 264 264 265 267 268 270 272 273 272 272 272 274 274 273 273 274 275 274 273 273 273 274 275 275 274 274 274 276 278 279 278 278 279 280 281
257 259 259 260 261 262 264 263 263 264 265 266 268 270 273 275 275 274 273 272 273 275 275 274 274 274 273 273 273 273 274 275 276 276 276 275 275 277 278 280 280 280 280 281
258 259 259 260 261 263 264 264 264 266 266 267 270 272 274 276 276 276 275 273 274 275 276 275 274 274 275 275 275 275 275 275 276 276 278 279 278 278 279 279 280 281 281 282
259 259 260 261 262 263 265 266 268 269 269 270 271 272 274 276 277 277 276 275 276 276 275 275 275 275 276 276 275 275 275 277 278 279 278 279 280 280 280 280 281 282 282 282
259 259 260 260 262 263 264 266 268 269 269 271 272 273 274 277 279 279 279 278 279 279 277 275 274 274 274 274 273 274 275 276 277 277 278 279 279 280 281 281 282 282 282 283
263 263 262 263 265 265 266 268 268 270 271 272 273 274 275 277 278 280 281 281 281 281 280 277 274 273 273 274 274 276 276 276 277 278 279 279 281 281 282 282 281 282 284 284
263 265 267 267 267 268 269 268 268 271 274 274 274 274 275 277 278 279 281 281 280 280 280 278 275 274 275 276 276 275 276 278 279 279 279 280 280 281 281 281 280 280 283 284
264 265 269 270 270 271 271 271 270 272 275 276 276 276 276 278 278 279 280 280 280 281 280 279 277 275 274 275 275 275 276 278 279 280 280 280 279 279 280 281 282 282 284 283
268 270 270 270 271 272 272 273 273 274 275 276 276 276 277 278 279 279 280 281 281 280 279 279 278 277 276 275 275 276 278 279 279 280 280 280 281 281 282 284 284 284 285 284
Height
5870 5871 5873 5874 5876 5877 5879 5880 5882 5883 5883 5883 5883 5882 5883 5883 5883 5883 5883 5882 5882 5882 5882 5881 5880 5880 5879 5877 5876 5875 5874 5873 5871 5870 5868 5866 5865 5863 5861 5860 5858 5856 5854 5852
5863 5865 5866 5868 5869 5871 5872 5874 5875 5876 5877 5877 5877 5877 5877 5878 5878 5878 5878 5877 5877 5877 5876 5876 5875 5874 5874 5872 5871 5870 5869 5867 5866 5865 5863 5861 5860 5858 5856 5854 5852 5850 5848 5846
5858 5859 5859 5861 5863 5864 5865 5867 5868 5869 5871 5870 5871 5871 5871 5872 5872 5872 5872 5872 5871 5871 5870 5870 5870 5869 5868 5867 5866 5864 5863 5862 5861 5859 5858 5856 5854 5853 5851 5849 5847 5845 5842 5840
5851 5852 5854 5857 5856 5857 5859 5860 5861 5862 5863 5863 5864 5864 5865 5865 5866 5866 5866 5865 5865 5865 5865 5864 5863 5863 5862 5861 5860 5859 5857 5856 5855 5853 5852 5850 5848 5847 5845 5843 5841 5839 5837 5834
5844 5846 5847 5848 5849 5850 5852 5852 5854 5854 5855 5855 5856 5856 5857 5858 5859 5859 5859 5859 5858 5858 5858 5857 5857 5856 5855 5854 5853 5852 5851 5850 5848 5847 5845 5844 5842 5840 5838 5836 5834 5832 5830 5827
5837 5839 5841 5841 5842 5842 5845 5845 5846 5846 5847 5848 5848 5850 5850 5851 5851 5851 5852 5852 5851 5851 5851 5851 5850 5849 5848 5847 5846 5845 5844 5842 5841 5840 5838 5837 5835 5833 5831 5829 5827 5825 5823 5820
5829 5831 5832 5833 5834 5836 5838 5838 5838 5838 5839 5840 5841 5842 5843 5843 5843 5844 5844 5844 5844 5843 5843 5843 5842 5841 5840 5839 5838 5837 5836 5834 5833 5832 5830 5828 5827 5825 5823 5821 5820 5818 5815 5813
5821 5823 5826 5825 5826 5828 5828 5829 5829 5830 5831 5832 5832 5833 5834 5835 5835 5835 5835 5835 5835 5835 5834 5834 5833 5832 5831 5830 5829 5828 5827 5826 5825 5823 5822 5820 5818 5817 5815 5813 5811 5809 5808 5806
5814 5816 5816 5817 5818 5818 5819 5820 5821 5821 5822 5823 5824 5824 5825 5826 5826 5827 5827 5826 5826 5826 5825 5825 5824 5823 5821 5820 5820 5819 5818 5817 5815 5814 5813 5811 5810 5808 5806 5804 5803 5801 5799 5798
5805 5806 5807 5808 5809 5810 5810 5811 5812 5813 5814 5814 5815 5815 5816 5817 5817 5817 5817 5817 5817 5817 5816 5815 5814 5813 5812 5811 5810 5810 5809 5807 5806 5805 5804 5802 5801 5799 5798 5796 5794 5792 5791 5789
5796 5797 5798 5799 5800 5801 5802 5803 5803 5804 5805 5805 5805 5805 5806 5807 5808 5808 5808 5808 5807 5807 5806 5806 5805 5803 5802 5802 5801 5800 5799 5798 5797 5795 5794 5793 5791 5790 5789 5787 5786 5784 5782 5781
5788 5789 5790 5791 5792 5792 5793 5794 5795 5795 5796 5796 5796 5796 5797 5797 5798 5798 5798 5798 5798 5797 5797 5796 5795 5794 5793 5792 5791 5790 5789 5788 5787 5786 5784 5783 5782 5781 5779 5778 5777 5775 5774 5772
5778 5780 5781 5782 5783 5784 5784 5785 5785 5786 5786 5787 5787 5787 5787 5788 5788 5788 5788 5788 5788 5788 5787 5787 5786 5784 5783 5782 5781 5780 5779 5778 5777 5775 5774 5773 5772 5771 5770 5769 5768 5766 5765 5763
5769 5771 5772 5773 5774 5774 5775 5775 5776 5776 5776 5777 5777 5777 5777 5778 5778 5778 5778 5778 5778 5778 5777 5776 5776 5775 5773 5772 5771 5770 5768 5767 5766 5765 5764 5763 5762 5761 5760 5759 5758 5757 5756 5754
5760 5762 5763 5764 5765 5765 5765 5766 5766 5767 5767 5767 5767 5767 5768 5768 5768 5768 5768 5768 5768 5767 5767 5766 5765 5764 5763 5762 5760 5759 5758 5757 5756 5754 5752 5752 5752 5751 5751 5750 5748 5747 5746 5745
5752 5753 5754 5755 5755 5756 5756 5756 5757 5757 5757 5757 5757 5758 5758 5758 5758 5758 5758 5758 5757 5757 5756 5756 5755 5754 5752 5751 5750 5749 5748 5747 5746 5745 5743 5743 5742 5741 5740 5740 5739 5738 5737 5735
5743 5744 5745 5745 5746 5747 5747 5747 5747 5748 5748 5748 5748 5748 5748 5748 5748 5748 5748 5747 5747 5746 5745 5745 5743 5742 5741 5740 5739 5738 5737 5736 5736 5735 5734 5733 5732 5731 5730 5729 5728 5727 5726 5725
5733 5735 5735 5736 5737 5737 5738 5738 5738 5738 5738 5738 5738 5739 5738 5738 5738 5738 5737 5737 5736 5735 5734 5733 5732 5731 5730 5729 5729 5728 5727 5726 5725 5724 5724 5723 5722 5721 5720 5719 5718 5717 5716 5715
5724 5725 5726 5727 5727 5728 5728 5728 5728 5728 5728 5729 5729 5729 5729 5728 5728 5727 5726 5725 5725 5724 5724 5722 5721 5720 5719 5718 5718 5717 5716 5716 5715 5714 5713 5713 5712 5711 5710 5709 5708 5707 5706 5705
5715 5716 5717 5717 5718 5718 5718 5719 5719 5719 5719 5720 5719 5719 5719 5719 5718 5717 5716 5715 5714 5714 5713 5712 5711 5710 5709 5708 5707 5706 5706 5705 5705 5704 5703 5702 5702 5701 5700 5699 5698 5697 5696 5695
5706 5707 5707 5708 5709 5709 5710 5710 5710 5710 5711 5711 5711 5710 5710 5709 5708 5707 5705 5705 5705 5703 5702 5701 5700 5699 5699 5698 5697 5696 5696 5695 5695 5694 5694 5693 5692 5691 5690 5690 5689 5688 5687 5686
5697 5698 5698 5699 5700 5701 5701 5701 5702 5702 5702 5701 5701 5701 5700 5700 5699 5697 5696 5696 5695 5693 5691 5691 5690 5690 5689 5688 5688 5687 5686 5686 5685 5685 5684 5684 5683 5682 5681 5680 5679 5678 5677 5675
5689 5690 5690 5691 5691 5692 5693 5693 5693 5693 5693 5693 5693 5692 5692 5691 5690 5689 5688 5687 5685 5683 5682 5681 5681 5680 5680 5679 5679 5678 5677 5677 5676 5676 5675 5675 5674 5673 5672 5671 5670 5669 5668 5666
5682 5682 5682 5683 5684 5684 5685 5685 5685 5685 5685 5685 5684 5684 5683 5682 5681 5680 5679 5678 5676 5675 5674 5673 5672 5672 5671 5670 5670 5670 5669 5668 5668 5667 5667 5666 5665 5664 5664 5663 5661 5660 5659 5657
5675 5675 5675 5676 5676 5677 5677 5677 5677 5677 5677 5677 5676 5676 5675 5674 5673 5672 5671 5669 5668 5667 5666 5665 5664 5663 5663 5663 5662 5662 5662 5661 5661 5660 5659 5658 5657 5656 5655 5654 5653 5652 5650 5649
5669 5669 5669 5669 5669 5670 5670 5670 5670 5670 5670 5669 5669 5668 5667 5666 5665 5664 5663 5662 5661 5659 5658 5657 5656 5656 5655 5655 5655 5655 5654 5654 5653 5652 5651 5650 5649 5648 5647 5646 5645 5644 5642 5641
5663 5663 5663 5663 5663 5663 5663 5663 5663 5663 5662 5662 5661 5661 5660 5659 5658 5657 5656 5655 5654 5653 5651 5650 5649 5649 5648 5648 5648 5647 5647 5646 5645 5645 5644 5643 5642 5641 5640 5639 5638 5637 5636 5634